Location: ?????????
(41.1143°N, 22.7905°E)
Time: 22:21:20
(UTC+00:00)

IRAS Rocket - Visible Passes

Search period start: 12 March 2026 00:00
Search period end: 22 March 2026 00:00
Orbit: 845 x 876 km, 100.1° (Epoch: 12 March)

Date Brightness Start Highest point End Pass type
(mag) Time Alt. Az. Time Alt. Az. Time Alt. Az.
12 Mar 4.7 17:18:11 10° SE 17:23:24 42° ENE 17:28:38 10° N visible
12 Mar 6.1 18:59:31 10° SSW 19:04:13 27° W 19:08:57 10° NW visible
13 Mar 4.9 17:09:27 10° SE 17:14:29 35° ENE 17:19:29 10° N visible
13 Mar 5.8 18:50:09 10° SSW 18:55:10 33° W 19:00:11 10° NW visible
14 Mar 5.1 17:00:48 10° ESE 17:05:33 29° ENE 17:10:18 10° N visible
14 Mar 5.5 18:40:53 10° S 18:46:06 40° W 18:51:21 10° NNW visible
15 Mar 5.1 18:31:40 10° S 18:37:04 48° WSW 18:42:28 10° NNW visible
16 Mar 4.8 18:22:31 10° S 18:28:02 59° WSW 18:33:34 10° NNW visible
17 Mar 4.5 18:13:26 10° S 18:19:01 71° WSW 18:24:37 10° NNW visible
18 Mar 4.3 18:04:24 10° SSE 18:10:01 85° WSW 18:15:38 10° NNW visible
18 Mar 7.1 19:50:18 10° WSW 19:51:29 11° W 19:52:39 10° WNW visible
19 Mar 4.2 17:55:26 10° SSE 18:01:01 80° ENE 18:06:37 10° NNW visible
19 Mar 6.9 19:39:42 10° WSW 19:42:21 13° W 19:45:00 10° WNW visible
20 Mar 4.2 17:46:31 10° SSE 17:52:03 67° ENE 17:57:34 10° N visible
20 Mar 6.7 19:29:46 10° SW 19:33:13 17° W 19:36:41 10° NW visible
21 Mar 4.4 17:37:38 10° SE 17:43:05 55° ENE 17:48:31 10° N visible
21 Mar 6.5 19:20:05 10° SW 19:24:07 20° W 19:28:10 10° NW visible
